Temperature
22 21 20 20 22 24 27 29 29 29 29 29 28 28 27 26 25 23 22 21 21 20 20 20 20 19 19 19 19 19 19 19 19 19 19 19 19 19 19 19 19 19 18 18 18 18 18 18 18
21 21 21 22 24 26 27 29 29 29 29 29 28 27 27 25 24 23 22 21 21 20 20 20 20 19 19 19 19 19 19 19 19 19 19 19 19 19 19 19 19 18 18 18 18 18 18 18 18
21 21 23 25 26 27 28 29 29 30 29 29 28 27 26 25 24 22 22 21 21 20 20 20 20 20 19 19 19 19 19 19 19 19 19 19 19 19 19 19 19 18 18 18 18 18 18 18 18
21 23 25 26 27 29 30 30 30 30 29 29 28 26 24 24 23 22 22 22 21 20 20 20 20 20 20 19 19 19 19 19 19 19 19 19 19 19 19 19 19 19 19 18 18 18 18 18 18
23 25 26 27 29 30 31 31 31 30 29 28 27 26 24 23 23 23 22 22 21 20 20 20 20 20 20 19 19 19 19 19 19 19 19 19 19 19 19 19 19 19 19 19 18 18 18 18 18
25 26 26 28 29 31 31 31 31 30 29 28 27 26 24 23 23 23 23 22 22 21 20 20 20 20 20 20 19 19 19 19 19 19 19 19 19 19 19 19 19 19 19 19 19 18 18 18 18
26 27 28 29 30 30 31 31 31 30 29 29 28 26 24 23 23 23 23 22 22 21 20 20 20 20 20 20 20 19 19 19 19 19 19 19 19 19 19 19 19 19 19 19 19 19 19 19 19
28 29 29 30 30 30 31 31 30 30 29 29 28 27 24 23 23 23 23 22 22 21 21 20 20 20 20 20 20 19 19 19 19 19 19 19 19 19 19 19 19 19 19 19 19 19 19 19 19
30 29 29 31 31 31 32 31 31 30 29 28 27 26 25 24 24 23 23 22 22 22 21 21 20 20 20 20 20 20 19 19 19 19 19 19 19 19 19 19 19 19 19 19 19 19 19 19 19
31 29 31 32 32 32 32 32 31 30 30 28 27 25 25 24 24 24 23 22 22 22 22 21 21 20 20 20 20 19 19 19 19 19 19 19 19 19 19 19 19 19 19 19 19 19 19 19 19
32 31 33 33 32 32 32 32 31 31 30 29 27 26 25 24 24 24 23 23 22 22 22 21 21 20 20 20 20 19 19 19 19 19 19 19 19 19 19 19 19 19 19 19 19 19 19 19 19
32 33 33 33 33 33 32 32 31 30 29 28 27 26 25 25 24 24 23 23 22 22 21 21 21 20 20 20 20 20 20 19 19 19 19 19 19 19 19 19 19 19 19 19 19 19 19 19 19
33 33 33 33 33 32 32 32 31 30 29 28 27 26 26 25 24 24 23 23 22 22 21 21 21 20 20 20 20 20 20 20 19 19 19 19 19 19 19 19 19 19 19 19 19 19 19 19 19
33 33 33 33 33 32 32 32 31 30 29 28 27 27 26 25 24 24 23 22 22 22 21 21 20 20 20 20 20 20 20 20 20 19 19 19 19 19 19 19 19 19 19 19 19 19 19 19 19
32 32 32 33 33 32 32 31 31 30 29 29 28 27 26 25 25 24 23 23 22 21 21 21 20 20 20 20 20 20 20 20 20 19 20 19 19 19 19 19 19 19 19 19 19 20 19 19 19
32 31 30 32 33 33 31 30 31 31 30 29 28 27 26 25 25 24 23 23 22 21 21 21 20 20 20 20 20 20 20 20 20 19 19 19 19 19 19 19 19 19 19 20 20 19 19 19 19
30 29 30 31 33 33 32 30 31 31 30 29 28 27 26 25 25 24 23 22 22 21 21 21 20 20 20 20 20 20 20 20 20 19 19 19 19 19 19 20 20 19 19 19 19 19 19 19 19
29 29 30 30 32 33 32 31 32 31 31 30 29 28 27 26 25 24 24 23 22 21 21 21 20 20 20 20 20 20 20 20 19 19 20 19 19 19 19 20 20 19 19 19 19 20 19 19 19
30 30 29 31 33 32 31 31 32 32 31 31 29 29 27 26 25 25 24 23 22 21 21 20 20 20 20 20 20 20 20 20 19 19 19 19 19 19 19 19 19 19 19 19 19 19 19 19 19
31 30 30 31 33 33 32 31 32 32 32 31 30 29 28 27 26 25 24 23 22 21 21 20 20 20 20 20 20 19 19 20 20 19 19 19 19 19 19 19 19 19 19 19 19 19 19 19 19
31 30 30 30 32 32 32 31 31 32 32 31 31 29 28 27 26 25 24 23 23 22 21 21 20 20 20 20 19 20 20 19 19 19 19 19 19 19 19 19 19 19 19 19 19 19 19 19 19
30 32 31 31 31 31 31 29 30 31 31 31 30 30 29 28 26 25 24 23 23 22 21 21 20 20 20 20 19 19 19 19 19 19 19 19 19 19 19 19 19 19 19 19 19 19 19 19 19
32 32 32 31 30 30 31 30 29 30 29 29 31 30 29 28 27 26 25 24 23 22 22 21 20 20 20 20 19 19 19 19 19 19 19 19 19 19 19 19 19 19 19 19 19 19 19 19 19
33 32 32 31 30 28 30 29 28 29 29 30 30 30 30 28 27 26 25 24 23 23 22 21 20 20 20 20 19 19 19 19 19 19 19 19 19 19 19 19 19 19 19 18 18 18 18 18 19
33 31 29 28 28 28 30 30 29 30 31 31 30 30 29 28 27 26 25 24 23 23 22 21 21 20 20 20 19 19 19 19 19 19 19 19 19 19 19 19 19 19 18 18 18 18 18 18 18
32 31 29 28 28 29 30 30 30 31 32 31 31 30 29 29 28 26 25 24 24 23 22 21 21 20 20 20 19 19 19 19 19 19 19 19 19 19 19 19 18 18 18 18 18 18 18 18 18
32 31 32 30 30 29 29 29 29 31 32 31 31 30 29 29 28 27 26 25 24 23 22 22 21 20 20 20 20 19 19 19 19 19 19 19 19 19 19 18 18 18 18 18 18 18 18 18 18
33 32 31 30 28 27 28 28 28 29 30 31 31 30 29 29 28 27 26 25 24 23 23 22 21 21 20 20 19 19 19 19 19 18 18 18 18 18 18 18 18 17 17 17 18 17 17 17 17
32 32 31 30 30 28 27 28 29 28 29 30 31 30 28 28 27 27 26 25 24 24 23 22 21 21 20 20 19 19 19 19 19 18 18 18 18 18 18 18 17 17 17 17 17 17 17 17 17
33 32 31 30 29 29 29 28 30 29 29 29 30 29 28 28 27 26 25 25 24 23 23 22 21 21 20 20 19 19 19 18 18 18 18 18 18 18 18 17 17 17 17 17 17 17 17 17 16
Wind_Speed
9 10 8 4 4 2 5 9 11 10 10 11 12 12 15 15 10 9 7 11 13 14 14 14 13 12 11 11 10 9 9 9 10 10 10 10 10 10 11 10 11 11 11 10 10 9 8 8 7
8 9 6 4 3 3 7 9 11 11 10 10 12 13 14 14 12 10 9 10 13 13 13 13 13 12 11 11 10 9 9 10 10 10 10 10 10 10 10 10 10 10 10 10 9 8 7 6 6
9 9 5 3 2 6 8 9 9 10 10 10 11 13 11 10 10 8 10 11 13 14 14 14 13 12 11 11 11 10 10 10 10 10 10 10 9 10 10 10 10 10 9 9 8 8 6 5 5
5 5 4 1 4 7 9 9 9 10 10 10 11 10 11 9 9 10 11 12 13 13 14 14 13 12 11 11 10 10 11 11 11 10 10 9 9 9 10 10 9 9 9 9 8 7 5 5 5
7 4 2 2 7 9 9 8 8 11 11 12 13 13 11 11 11 12 11 12 13 13 12 14 14 13 11 11 10 10 10 11 11 10 10 9 9 9 9 9 9 8 8 8 7 6 4 4 5
5 2 1 5 8 8 9 9 11 12 12 12 12 13 10 9 10 10 10 11 13 12 12 13 14 14 12 11 10 10 11 10 10 10 9 9 8 9 9 9 8 8 8 7 6 6 4 3 4
5 3 1 6 7 9 9 10 10 11 11 9 10 12 10 10 10 10 10 11 12 13 11 11 13 13 12 11 10 10 10 10 10 9 9 9 8 9 9 8 8 8 8 7 6 6 5 5 5
5 2 3 6 8 9 9 10 10 10 10 8 8 10 10 11 11 11 11 11 11 11 10 10 11 12 12 11 11 10 10 10 9 9 8 9 9 9 9 9 8 8 7 6 6 6 6 6 7
5 2 2 7 7 8 8 9 9 10 11 12 12 15 14 15 12 11 11 10 9 8 8 8 9 10 11 11 12 11 10 9 9 8 9 8 8 8 8 8 10 9 8 7 7 7 7 8 9
3 0 5 7 6 7 7 7 8 9 12 14 15 16 15 14 12 10 11 10 9 8 8 8 8 7 7 8 10 9 8 8 7 7 7 7 5 6 7 9 11 10 9 8 9 9 8 9 9
1 1 5 6 6 6 7 8 9 10 10 12 14 15 14 13 11 10 10 10 9 7 6 8 7 6 6 5 6 4 5 7 6 6 7 5 4 5 6 6 7 8 9 7 8 9 9 9 7
2 1 4 4 5 6 8 8 9 10 10 12 14 14 13 12 10 10 10 9 8 7 7 7 7 6 5 3 3 3 3 4 4 5 5 4 2 1 3 2 4 5 5 5 5 5 7 7 5
2 1 4 4 5 6 7 8 10 11 12 14 14 13 12 11 11 10 9 9 8 6 7 7 7 6 5 3 1 3 2 3 5 4 3 3 2 2 2 2 2 3 3 3 2 2 2 1 1
2 1 1 4 5 5 6 8 9 10 12 13 12 11 11 11 11 10 9 9 8 7 8 7 7 7 5 3 1 1 2 3 4 3 3 3 3 1 1 2 2 2 2 3 2 2 1 1 0
2 2 3 3 5 6 5 6 8 10 12 11 12 11 11 11 10 9 9 8 8 8 7 7 7 7 5 3 1 2 2 3 3 3 3 2 2 2 1 2 2 1 2 3 2 2 1 2 2
4 4 4 4 5 7 4 5 8 10 11 11 11 11 10 10 10 9 10 9 9 8 7 5 6 7 6 4 1 1 2 3 2 3 4 2 2 2 1 1 1 1 2 1 1 1 1 0 0
5 4 4 3 4 5 5 6 9 9 10 10 10 11 11 9 9 10 10 10 9 8 7 6 6 6 5 4 2 1 2 2 2 2 2 2 2 2 1 1 0 2 1 1 1 1 0 1 1
3 5 4 5 5 4 5 6 7 8 9 11 12 12 12 11 9 10 11 10 10 9 8 6 6 5 3 3 2 1 1 2 2 2 2 2 2 2 1 1 0 1 1 1 2 1 1 1 2
5 6 6 6 4 3 4 6 8 8 9 10 11 11 12 12 12 11 11 11 10 9 8 6 6 5 3 2 2 1 1 1 1 2 2 2 1 1 0 1 1 0 0 0 1 1 2 2 1
6 7 6 5 4 4 5 6 8 8 9 9 11 11 12 12 12 11 11 11 11 10 9 7 6 6 4 3 1 1 1 2 2 2 2 2 1 1 1 1 1 1 1 0 1 1 1 2 1
6 5 5 6 6 7 6 6 7 9 9 9 10 12 13 13 13 12 10 10 10 10 9 8 6 6 4 4 2 1 1 1 1 2 1 1 1 2 0 0 0 0 1 1 1 2 2 2 2
6 6 6 7 8 7 7 5 6 9 7 9 10 10 12 13 13 12 11 10 10 10 10 8 7 6 4 3 2 2 2 1 1 2 2 2 2 2 1 1 1 1 1 0 1 1 2 2 2
6 6 7 8 9 9 8 6 4 6 8 9 10 11 12 13 13 12 12 10 9 10 10 9 8 6 5 4 3 2 1 1 1 1 2 2 2 2 2 2 1 1 1 1 1 2 2 1 3
6 6 9 8 6 9 9 5 4 6 9 10 10 11 12 12 12 12 11 10 9 10 9 9 9 7 6 5 3 3 2 1 1 1 2 2 2 2 2 2 1 0 1 1 1 1 2 2 3
7 6 5 6 6 8 7 5 5 8 9 9 10 10 13 13 13 13 12 11 10 10 10 9 9 7 7 6 4 4 3 2 1 1 1 2 1 2 2 1 1 1 1 2 1 1 2 2 3
9 8 7 6 6 6 4 2 4 8 7 8 9 10 12 13 13 13 13 12 11 10 10 10 9 8 7 6 5 3 3 3 2 2 2 1 1 1 1 1 1 1 2 2 1 2 2 2 3
8 8 9 9 8 5 3 2 2 5 9 10 10 11 11 12 13 13 13 12 11 11 10 10 9 8 8 7 6 5 3 3 2 2 2 1 1 1 1 1 1 1 1 2 2 2 2 2 2
9 8 5 6 4 6 4 4 2 2 5 8 11 11 12 12 12 12 12 11 10 10 10 9 8 7 7 7 6 6 5 4 3 2 1 1 1 1 0 1 1 1 1 1 2 2 2 1 2
9 11 8 6 6 6 5 2 2 3 2 4 8 9 9 10 9 9 9 9 10 9 9 9 8 8 7 6 5 5 5 4 4 3 2 2 1 1 0 1 1 1 1 2 2 3 2 2 2
11 11 9 7 6 7 6 2 1 1 1 2 5 9 9 9 10 9 9 9 9 8 7 7 8 8 7 6 5 5 4 4 4 3 3 2 2 1 1 1 2 2 2 2 1 2 2 2 2
Wind_Direction
190 206 217 237 248 247 44 56 61 58 61 57 55 62 60 52 60 90 108 102 107 110 114 114 112 114 113 113 113 114 118 120 120 118 116 113 112 113 113 113 113 113 115 115 114 113 111 112 116
210 216 226 243 262 48 56 61 63 63 68 75 66 67 69 65 73 96 100 102 110 111 113 114 116 114 113 112 113 114 119 123 121 119 118 115 115 117 115 113 114 113 115 116 116 117 114 119 134
237 238 250 243 24 46 54 65 74 80 77 79 74 62 62 74 80 94 106 112 108 110 111 117 121 118 116 114 114 113 113 119 122 122 121 119 118 119 117 114 113 114 116 118 118 118 119 127 139
236 233 243 268 50 50 62 73 79 83 78 76 82 78 73 71 93 110 117 115 112 114 116 123 124 121 120 119 120 118 115 115 117 121 123 122 120 119 118 115 116 118 120 120 119 117 119 127 141
236 259 253 58 62 61 64 69 77 81 80 80 86 94 88 87 101 115 121 119 117 117 118 126 129 126 125 123 124 127 127 125 123 122 123 126 128 127 125 125 126 128 129 127 126 128 129 133 150
253 248 256 73 69 69 65 66 72 77 85 93 98 99 96 109 110 112 116 117 117 119 120 127 136 134 132 129 127 131 135 135 134 133 137 139 141 140 140 141 139 139 140 141 144 152 160 169 175
256 287 352 79 82 75 66 66 73 80 84 88 103 104 112 115 115 116 119 117 117 121 126 135 140 140 139 138 137 137 138 141 142 145 148 152 156 156 153 152 153 154 154 158 165 174 187 197 203
243 302 358 60 69 78 73 73 79 87 87 89 96 108 123 126 124 120 114 113 116 120 126 135 141 144 147 146 149 146 147 149 149 153 157 159 162 166 163 161 163 166 166 171 182 192 201 208 220
256 283 28 59 67 79 81 84 87 96 97 85 81 103 124 130 125 123 115 111 109 111 121 129 134 144 149 149 148 153 155 159 160 162 168 170 172 173 171 165 169 176 179 189 199 208 213 217 227
230 213 56 63 75 84 83 86 95 97 94 98 100 109 124 129 127 124 121 117 115 119 122 121 127 132 141 141 145 156 154 158 166 159 172 183 183 173 153 156 176 182 189 199 210 214 221 230 228
227 65 70 75 82 86 89 82 85 87 91 105 118 124 129 131 132 126 120 118 121 121 113 112 117 123 126 123 139 149 148 159 165 166 175 176 167 159 143 163 173 187 193 204 206 210 217 226 226
210 116 89 86 83 84 86 81 82 83 95 108 120 129 135 136 132 130 126 124 120 121 118 115 118 112 106 113 131 143 142 145 145 157 169 148 143 144 138 151 175 186 189 198 210 215 217 227 225
248 159 121 110 99 97 98 95 95 98 107 115 125 131 136 135 131 127 124 124 126 127 119 111 108 107 106 99 115 122 116 130 136 146 158 159 148 149 144 157 190 202 190 191 215 236 234 226 233
281 315 137 141 130 115 109 107 108 113 118 121 127 132 131 126 126 128 131 132 134 137 128 126 126 117 118 113 94 113 126 129 128 136 138 163 139 146 157 168 196 221 201 204 211 208 222 241 281
252 247 240 176 151 132 126 111 119 131 129 130 132 135 133 132 132 134 134 138 139 135 129 133 135 123 121 113 113 134 137 120 125 135 144 152 147 162 186 193 204 234 221 199 203 219 195 205 202
247 229 226 194 169 155 158 136 137 143 139 139 140 139 139 138 140 139 136 132 135 133 128 136 133 127 126 114 91 87 105 117 124 136 141 158 164 165 173 196 217 257 244 228 211 220 225 273 260
260 246 236 241 204 166 161 148 150 155 149 145 145 147 146 145 145 142 137 135 131 125 123 124 115 122 130 136 153 148 115 113 124 137 144 154 165 156 178 164 265 266 285 313 299 78 33 297 298
271 263 249 238 219 172 155 155 162 169 162 155 155 157 151 152 156 150 143 141 135 129 128 129 123 123 132 129 140 150 127 140 139 118 122 140 181 169 229 160 178 305 357 11 17 7 308 268 264
248 245 253 252 236 200 180 180 177 178 175 160 160 160 157 156 157 152 149 145 141 139 140 143 142 139 145 135 155 161 159 174 162 153 143 165 191 157 296 307 153 255 49 349 360 307 275 260 231
237 243 248 261 238 222 198 207 187 180 174 165 164 161 156 152 151 152 155 152 152 149 151 152 150 144 147 144 171 177 178 191 178 130 122 145 144 238 212 206 228 168 153 259 284 280 288 277 241
250 255 253 262 258 244 224 226 196 176 170 167 167 160 157 160 157 156 158 160 158 155 157 158 153 147 154 158 166 157 168 225 149 132 132 159 178 195 265 130 300 190 189 226 241 277 265 285 287
259 263 255 252 259 251 234 234 203 174 173 175 173 167 160 157 156 158 161 160 162 159 160 152 148 147 153 155 168 180 167 164 144 140 153 179 198 184 171 175 248 277 282 313 274 260 280 279 290
245 252 263 251 255 268 248 251 203 177 187 196 184 173 161 157 155 156 161 163 164 163 160 153 146 150 154 165 168 171 172 168 164 149 153 174 178 190 175 177 218 263 286 306 301 334 314 307 294
253 254 264 257 253 261 255 236 211 192 204 197 188 175 157 151 155 157 159 161 164 160 156 154 151 156 160 166 171 168 181 201 173 167 173 198 192 194 192 176 181 244 286 284 268 296 294 296 304
240 255 268 258 247 247 244 231 177 191 188 181 179 171 159 159 160 160 161 163 162 161 159 157 154 159 164 167 181 174 185 200 208 225 222 231 206 178 172 167 148 258 271 274 288 264 282 285 290
238 236 241 255 263 275 276 240 166 180 162 156 163 163 164 162 162 164 163 163 165 164 158 155 157 161 167 169 177 177 179 198 202 230 275 274 274 135 127 141 172 239 268 280 272 276 271 271 281
242 246 260 267 275 279 279 262 219 180 155 165 168 162 162 167 164 164 162 163 164 163 160 158 157 164 170 172 173 173 179 195 207 214 230 280 310 213 125 146 175 237 281 301 288 266 285 291 283
239 251 267 271 284 288 263 247 208 189 181 170 168 164 166 167 163 159 159 161 162 163 159 155 157 164 166 172 184 178 184 196 201 223 226 243 280 356 98 175 201 231 270 285 292 279 258 282 292
232 241 245 256 256 266 273 258 143 194 185 180 165 156 161 155 148 143 148 152 154 154 154 155 161 166 173 174 177 175 180 189 195 201 206 204 224 233 214 242 237 234 248 255 266 273 271 267 281
248 247 242 247 250 262 274 284 96 92 219 189 160 151 156 147 144 144 147 146 143 145 149 157 166 171 171 170 172 175 176 184 195 198 203 188 193 216 210 228 236 234 230 242 251 271 283 272 271
Height
1483 1484 1485 1487 1487 1484 1478 1467 1462 1464 1465 1467 1468 1469 1473 1477 1483 1495 1495 1494 1494 1495 1495 1496 1497 1498 1499 1500 1501 1502 1503 1505 1506 1507 1509 1510 1512 1513 1514 1515 1517 1518 1519 1521 1522 1523 1524 1525 1527
1483 1485 1488 1487 1485 1485 1479 1466 1466 1466 1467 1469 1471 1473 1477 1483 1487 1492 1494 1495 1496 1496 1497 1498 1499 1500 1501 1502 1503 1503 1504 1505 1507 1509 1510 1512 1513 1514 1515 1517 1518 1519 1521 1522 1523 1524 1525 1525 1526
1484 1486 1487 1482 1480 1480 1477 1466 1465 1466 1468 1470 1473 1477 1482 1487 1490 1493 1495 1496 1497 1498 1498 1499 1500 1501 1502 1503 1504 1505 1506 1507 1509 1510 1512 1513 1514 1516 1517 1518 1519 1521 1522 1523 1524 1525 1525 1525 1525
1485 1486 1484 1480 1479 1470 1466 1464 1464 1466 1469 1471 1475 1481 1487 1491 1492 1494 1496 1497 1498 1499 1500 1500 1502 1503 1504 1505 1506 1507 1508 1509 1510 1512 1513 1515 1516 1517 1518 1519 1521 1522 1523 1524 1525 1525 1525 1526 1526
1486 1484 1482 1480 1473 1466 1464 1464 1464 1466 1470 1474 1478 1484 1490 1494 1494 1496 1497 1499 1500 1501 1501 1502 1503 1504 1505 1506 1507 1508 1510 1511 1512 1514 1515 1516 1517 1519 1520 1521 1522 1523 1524 1525 1526 1526 1526 1527 1527
1486 1482 1485 1482 1474 1466 1464 1465 1466 1468 1472 1476 1480 1485 1493 1495 1496 1497 1498 1500 1501 1502 1503 1504 1505 1506 1507 1508 1509 1510 1511 1513 1514 1515 1517 1518 1519 1520 1521 1522 1523 1524 1525 1526 1527 1528 1528 1528 1528
1483 1478 1478 1473 1472 1469 1466 1467 1468 1471 1474 1477 1480 1486 1493 1496 1497 1498 1499 1501 1502 1503 1504 1505 1506 1507 1508 1509 1511 1512 1513 1514 1516 1517 1518 1519 1520 1521 1523 1524 1525 1526 1526 1527 1528 1528 1529 1529 1529
1476 1475 1475 1470 1471 1471 1467 1469 1470 1473 1476 1479 1480 1485 1493 1497 1498 1500 1501 1503 1504 1505 1506 1506 1507 1508 1510 1511 1512 1514 1515 1516 1517 1518 1519 1520 1521 1523 1524 1525 1526 1527 1527 1528 1528 1529 1529 1530 1530
1475 1477 1478 1470 1470 1469 1468 1469 1472 1474 1477 1480 1483 1487 1493 1496 1499 1501 1503 1505 1506 1507 1508 1508 1509 1510 1511 1513 1514 1515 1516 1517 1518 1520 1521 1522 1523 1524 1525 1526 1527 1527 1528 1528 1529 1530 1530 1530 1530
1471 1476 1471 1465 1465 1466 1468 1470 1471 1474 1478 1482 1487 1491 1494 1497 1499 1501 1503 1505 1507 1508 1509 1509 1510 1512 1514 1515 1515 1516 1518 1519 1520 1521 1522 1523 1524 1526 1526 1527 1527 1528 1528 1529 1530 1530 1530 1530 1530
1468 1469 1465 1465 1466 1467 1468 1470 1472 1474 1479 1483 1488 1492 1495 1498 1500 1502 1504 1506 1508 1509 1510 1511 1511 1513 1515 1516 1516 1518 1519 1520 1521 1522 1523 1524 1525 1526 1527 1527 1528 1528 1529 1529 1530 1530 1530 1529 1529
1467 1465 1464 1466 1466 1467 1469 1472 1474 1477 1482 1485 1489 1492 1496 1498 1501 1503 1505 1507 1509 1510 1512 1512 1513 1514 1515 1516 1517 1518 1520 1520 1521 1523 1524 1525 1526 1527 1528 1528 1528 1529 1529 1530 1530 1530 1530 1530 1529
1465 1465 1465 1466 1468 1469 1471 1473 1476 1480 1484 1487 1490 1493 1496 1499 1501 1504 1506 1507 1509 1511 1512 1513 1514 1514 1515 1516 1517 1519 1520 1521 1522 1523 1524 1525 1526 1527 1528 1528 1529 1529 1530 1530 1530 1531 1531 1530 1530
1465 1465 1466 1466 1467 1469 1471 1474 1477 1481 1484 1487 1491 1494 1497 1499 1502 1504 1506 1508 1509 1511 1512 1513 1514 1515 1516 1517 1517 1519 1520 1521 1523 1524 1524 1525 1526 1527 1528 1528 1529 1530 1530 1530 1531 1531 1531 1530 1530
1466 1468 1467 1465 1466 1468 1472 1476 1477 1480 1483 1487 1491 1494 1497 1500 1502 1504 1506 1508 1509 1511 1512 1513 1514 1515 1516 1517 1518 1520 1521 1522 1523 1523 1524 1525 1526 1527 1528 1528 1529 1530 1530 1531 1530 1531 1531 1531 1530
1466 1471 1476 1466 1463 1466 1473 1483 1476 1479 1482 1486 1490 1494 1497 1500 1502 1504 1506 1508 1509 1511 1512 1513 1515 1515 1516 1517 1518 1520 1521 1522 1523 1524 1524 1525 1526 1527 1527 1528 1529 1529 1530 1530 1530 1530 1530 1530 1530
1473 1481 1479 1471 1462 1463 1469 1477 1474 1477 1480 1484 1488 1492 1496 1499 1502 1504 1506 1508 1509 1510 1512 1513 1515 1515 1517 1518 1519 1520 1521 1522 1523 1524 1524 1525 1526 1526 1527 1528 1528 1529 1529 1529 1530 1529 1530 1530 1530
1483 1482 1477 1475 1463 1462 1468 1472 1471 1474 1477 1481 1485 1490 1494 1498 1501 1503 1505 1508 1509 1510 1512 1513 1514 1516 1517 1518 1519 1520 1521 1522 1523 1523 1524 1525 1525 1526 1527 1527 1528 1528 1529 1528 1529 1529 1529 1529 1529
1471 1476 1479 1470 1460 1463 1468 1469 1468 1470 1473 1477 1482 1486 1491 1495 1499 1502 1505 1507 1509 1510 1511 1513 1514 1515 1517 1518 1519 1520 1521 1522 1523 1523 1523 1524 1525 1526 1526 1527 1527 1527 1527 1528 1528 1528 1528 1529 1529
1469 1476 1475 1468 1460 1461 1466 1467 1464 1467 1470 1474 1478 1484 1488 1493 1497 1501 1503 1506 1508 1509 1511 1512 1514 1515 1516 1517 1518 1519 1520 1521 1522 1523 1523 1523 1524 1525 1526 1526 1526 1526 1526 1527 1527 1527 1527 1528 1528
1467 1471 1472 1472 1463 1459 1465 1471 1467 1466 1468 1473 1476 1480 1485 1490 1494 1499 1502 1504 1506 1508 1509 1511 1513 1514 1515 1517 1518 1519 1520 1521 1521 1522 1522 1523 1523 1524 1524 1525 1525 1525 1526 1526 1526 1526 1527 1527 1527
1471 1462 1464 1467 1471 1471 1467 1486 1472 1466 1469 1471 1474 1478 1482 1487 1492 1496 1500 1503 1505 1507 1509 1510 1511 1513 1514 1516 1517 1518 1519 1520 1520 1521 1522 1522 1522 1523 1523 1524 1524 1524 1525 1525 1525 1526 1526 1526 1526
1460 1458 1461 1464 1469 1472 1467 1478 1478 1468 1472 1472 1472 1475 1479 1484 1489 1494 1497 1501 1503 1505 1507 1509 1510 1512 1513 1515 1516 1517 1518 1519 1520 1520 1521 1521 1522 1522 1522 1522 1523 1523 1523 1524 1524 1524 1524 1525 1525
1453 1457 1460 1461 1469 1489 1474 1480 1487 1472 1469 1468 1469 1472 1476 1482 1488 1492 1496 1499 1502 1504 1506 1507 1509 1510 1512 1514 1515 1516 1517 1518 1519 1520 1520 1520 1521 1521 1521 1521 1522 1522 1522 1522 1522 1523 1523 1523 1523
1454 1468 1485 1490 1490 1487 1467 1471 1476 1463 1459 1462 1465 1469 1474 1480 1485 1490 1493 1496 1500 1502 1504 1506 1507 1509 1511 1512 1514 1515 1516 1517 1518 1519 1519 1520 1520 1520 1520 1520 1520 1520 1521 1521 1521 1521 1521 1521 1521
1456 1464 1487 1499 1497 1482 1468 1473 1466 1455 1454 1458 1463 1467 1472 1477 1482 1486 1490 1494 1497 1500 1502 1504 1506 1507 1509 1511 1512 1514 1515 1516 1517 1517 1518 1518 1519 1519 1518 1518 1518 1519 1519 1519 1519 1519 1519 1519 1519
1456 1461 1456 1469 1476 1485 1481 1473 1464 1452 1453 1456 1461 1465 1470 1474 1478 1484 1488 1492 1495 1498 1500 1502 1504 1506 1508 1509 1511 1512 1513 1514 1515 1516 1516 1517 1517 1517 1517 1517 1517 1517 1517 1517 1517 1517 1517 1518 1518
1447 1452 1461 1473 1492 1498 1487 1481 1477 1464 1458 1455 1459 1463 1468 1472 1476 1481 1486 1490 1493 1496 1498 1501 1503 1505 1506 1508 1509 1510 1511 1512 1513 1514 1514 1515 1515 1515 1515 1515 1514 1514 1515 1515 1515 1515 1515 1515 1515
1451 1455 1458 1464 1470 1488 1496 1485 1461 1461 1458 1458 1459 1462 1468 1471 1475 1479 1484 1488 1492 1494 1497 1499 1502 1503 1505 1506 1507 1508 1509 1510 1511 1511 1512 1512 1512 1513 1513 1513 1513 1512 1512 1513 1513 1513 1513 1513 1513
1443 1448 1453 1470 1473 1471 1480 1480 1455 1456 1457 1459 1460 1463 1467 1471 1474 1478 1483 1487 1490 1492 1495 1498 1500 1501 1503 1504 1505 1506 1507 1508 1509 1509 1510 1510 1510 1510 1510 1510 1510 1510 1510 1511 1511 1511 1511 1511 1511